Budapest Ferihegy, Hungary

4:36 AM CEST on October 17, 2017 (GMT +0200)
Ferihegy

Weather History for LHBP - August, 2012

Change the Weather History Date:

Wednesday, August 15, 2012

  Actual Average Record
Temperature  
Mean Temperature 65 °F -  
Max Temperature 82 °F 72 °F 96 °F (2015)
Min Temperature 48 °F 52 °F 48 °F (2012)
Growing Degree Days 15 (Base 50)    
Moisture  
Dew Point 46 °F    
Average Humidity 52    
Maximum Humidity 87    
Minimum Humidity 25    
Precipitation  
Precipitation 0.00 in - - ()
Sea Level Pressure  
Sea Level Pressure 29.95 in    
Wind  
Wind Speed 5 mph ()    
Max Wind Speed 15 mph    
Max Gust Speed 21 mph    
Averages and records for this station are not official NWS values.
T = Trace of Precipitation, MM = Missing Value Source: Averaged Metar Reports

Daily Weather History Graph

Daily Weather History Graph

Search for Another Location

Airport or City:

Trip Planner

Search our weather history database for the weather conditions in past years. The results will help you decide how hot, cold, wet, or windy it might be!

Date:

Astronomy

Aug. 15, 2012 Rise Set
Actual Time 5:39 AM CEST 7:54 PM CEST
Civil Twilight 5:05 AM CEST 8:27 PM CEST
Nautical Twilight 4:23 AM CEST 9:09 PM CEST
Astronomical Twilight 3:35 AM CEST 9:56 PM CEST
Moon 3:12 AM CEST (8/15) 6:19 PM CEST (8/15)
Length of Visible Light 15h 22m
Length of Day
14h 14m
Waning Crescent, 6% of the Moon is Illuminated
Aug 15
Waning Crescent
Aug 17
New
Aug 24
First Quarter
Aug 31
Full
Sep 8
Last Quarter

Hourly Weather History & Observations

Time (CEST) Temp. Dew Point Humidity Pressure Visibility Wind Dir Wind Speed Gust Speed Precip Events Conditions
12:00 AM 57.2 °F 48.2 °F 72% 29.98 in - Variable 3.5 mph - N/A   Clear
12:30 AM 55.4 °F 46.4 °F 72% 29.98 in - Calm Calm - N/A   Clear
1:00 AM 57.2 °F 46.4 °F 67% 30.01 in - Calm Calm - N/A   Clear
1:30 AM 51.8 °F 46.4 °F 82% 29.98 in - Variable 2.3 mph - N/A   Clear
2:00 AM 51.8 °F 46.4 °F 82% 29.98 in - Variable 2.3 mph - N/A   Clear
2:30 AM 50.0 °F 44.6 °F 82% 29.98 in - Variable 1.2 mph - N/A   Clear
3:00 AM 50.0 °F 44.6 °F 82% 29.98 in - Variable 2.3 mph - N/A   Clear
3:30 AM 50.0 °F 46.4 °F 87% 29.98 in - Variable 1.2 mph - N/A   Clear
4:00 AM 48.2 °F 44.6 °F 87% 29.98 in - Calm Calm - N/A   Clear
4:30 AM 50.0 °F 44.6 °F 82% 29.98 in - Variable 2.3 mph - N/A   Clear
5:00 AM 48.2 °F 44.6 °F 87% 29.98 in - Calm Calm - N/A   Clear
5:30 AM 48.2 °F 44.6 °F 87% 29.98 in - Variable 1.2 mph - N/A   Clear
7:00 AM 53.6 °F 46.4 °F 77% 29.98 in - Variable 1.2 mph - N/A   Clear
7:30 AM 59.0 °F 50.0 °F 72% 29.98 in - Variable 2.3 mph - N/A   Clear
8:00 AM 64.4 °F 48.2 °F 56% 29.98 in - Variable 3.5 mph - N/A   Clear
8:30 AM 68.0 °F 48.2 °F 49% 29.98 in - WNW 10.4 mph - N/A   Clear
9:00 AM 69.8 °F 48.2 °F 46% 29.98 in - WNW 11.5 mph - N/A   Clear
9:30 AM 71.6 °F 46.4 °F 41% 29.98 in - WNW 12.7 mph - N/A   Clear
10:00 AM 73.4 °F 46.4 °F 38% 29.98 in - West 12.7 mph - N/A   Clear
10:30 AM 75.2 °F 46.4 °F 36% 29.98 in - WNW 12.7 mph - N/A   Clear
11:00 AM 75.2 °F 48.2 °F 38% 29.98 in - WNW 13.8 mph - N/A   Clear
11:30 AM 75.2 °F 46.4 °F 36% 29.98 in - WNW 15.0 mph - N/A   Clear
12:00 PM 75.2 °F 42.8 °F 31% 29.98 in - NW 15.0 mph - N/A   Clear
12:30 PM 75.2 °F 44.6 °F 34% 29.95 in - NW 15.0 mph - N/A   Clear
1:00 PM 77.0 °F 42.8 °F 29% 29.95 in - NW 13.8 mph - N/A   Clear
1:30 PM 77.0 °F 44.6 °F 32% 29.95 in - WNW 11.5 mph - N/A   Clear
2:00 PM 78.8 °F 46.4 °F 32% 29.92 in - NW 13.8 mph - N/A   Clear
2:30 PM 78.8 °F 44.6 °F 30% 29.92 in - NW 12.7 mph - N/A   Clear
3:00 PM 80.6 °F 44.6 °F 28% 29.92 in - NW 9.2 mph 20.7 mph N/A   Clear
3:30 PM 80.6 °F 44.6 °F 28% 29.92 in - NW 13.8 mph - N/A   Clear
4:00 PM 82.4 °F 42.8 °F 25% 29.92 in - NW 12.7 mph - N/A   Clear
4:30 PM 80.6 °F 42.8 °F 26% 29.92 in - NW 11.5 mph - N/A   Clear
5:00 PM 80.6 °F 44.6 °F 28% 29.92 in - NW 13.8 mph - N/A   Clear
5:30 PM 80.6 °F 44.6 °F 28% 29.92 in - WNW 10.4 mph - N/A   Clear
6:00 PM 80.6 °F 44.6 °F 28% 29.92 in - NW 10.4 mph - N/A   Clear
6:30 PM 78.8 °F 44.6 °F 30% 29.92 in - WNW 11.5 mph - N/A   Clear
7:00 PM 78.8 °F 44.6 °F 30% 29.92 in - NW 10.4 mph - N/A   Clear
7:30 PM 75.2 °F 46.4 °F 36% 29.92 in - WNW 9.2 mph - N/A   Clear
8:00 PM 73.4 °F 46.4 °F 38% 29.92 in - WNW 5.8 mph - N/A   Clear
8:30 PM 69.8 °F 46.4 °F 43% 29.92 in - Variable 3.5 mph - N/A   Clear
9:00 PM 66.2 °F 46.4 °F 49% 29.92 in - Variable 1.2 mph - N/A   Clear
9:30 PM 64.4 °F 46.4 °F 52% 29.92 in - Variable 3.5 mph - N/A   Clear
10:00 PM 62.6 °F 48.2 °F 59% 29.92 in - Variable 2.3 mph - N/A   Clear
10:30 PM 60.8 °F 48.2 °F 63% 29.92 in - Variable 1.2 mph - N/A   Clear
11:00 PM 59.0 °F 48.2 °F 67% 29.92 in - Variable 2.3 mph - N/A   Clear
11:30 PM 59.0 °F 48.2 °F 67% 29.95 in - Variable 2.3 mph - N/A   Clear